RH
83 78 83 86 88 88 83 85 85 84 85 83 84 82 83 88 90 86 87 90 86 81 78 78 75 75 75 72 74 81 89 88 85 83 81 78 72 69 68 71 67 64 69 68 67 66 66 67 62 56 49 37 30 29 27 27 27 24 22 20 20 20 20 21 20 21 21 22 22 22 22 22 23 22 22 22 23 24 24 23 22 23 22 22 21 20 20 20 21 22 23 22 26 35 46 48 47
88 85 89 88 84 85 86 88 87 84 86 86 84 82 83 87 89 85 86 84 75 73 77 82 81 83 84 80 83 87 91 89 82 77 74 71 68 64 61 63 64 64 66 64 61 60 60 56 45 39 37 32 27 26 26 27 26 23 22 21 21 22 22 22 22 23 24 24 24 23 23 23 24 24 24 23 24 26 25 24 25 25 24 24 24 23 21 20 21 21 24 25 25 27 31 36 37
89 89 91 87 82 86 92 95 95 88 86 91 87 85 87 86 85 83 82 76 69 74 78 80 85 88 89 86 86 90 91 86 78 76 74 69 66 61 54 55 60 58 55 53 49 47 46 39 30 29 29 28 27 25 24 24 23 21 21 21 22 23 23 24 24 25 26 26 25 23 24 25 25 25 23 22 23 24 24 24 25 26 25 25 25 24 24 23 22 22 24 26 28 28 26 27 28
89 92 92 89 87 89 92 94 96 90 86 89 88 90 87 77 78 83 79 74 75 79 81 79 83 88 88 88 89 91 88 82 76 75 75 66 58 55 50 49 50 43 37 36 34 34 34 30 28 28 26 24 24 21 21 23 23 22 21 21 21 22 22 23 24 25 26 25 24 24 25 25 24 22 21 20 21 23 26 27 28 29 28 29 28 27 28 27 25 25 25 25 28 30 30 28 26
85 90 87 85 84 83 83 83 86 83 85 89 88 88 82 75 77 80 76 74 77 77 80 81 86 88 84 87 88 88 87 84 76 69 69 62 50 45 44 41 38 32 27 27 27 29 30 29 27 26 24 21 20 20 21 22 22 21 19 19 18 19 20 22 22 22 22 23 24 24 23 21 21 20 19 18 19 23 25 26 27 30 32 33 33 33 35 35 33 31 29 27 27 29 30 31 31
81 85 80 78 76 77 75 71 77 73 79 94 92 84 76 79 79 73 70 66 67 70 75 80 86 86 83 88 84 82 83 81 75 66 63 56 42 37 38 36 32 29 24 24 25 24 24 24 24 24 23 21 21 22 21 20 18 17 16 15 14 16 18 18 17 17 19 21 21 20 19 18 19 19 18 17 19 22 24 25 27 29 30 31 32 34 38 40 41 41 39 36 31 29 29 32 34
83 83 77 74 71 71 67 64 79 75 72 90 90 83 75 75 78 68 64 61 59 59 65 72 78 80 80 85 81 81 80 74 74 65 58 49 37 35 38 36 29 26 22 22 21 18 18 20 23 24 24 23 22 21 19 18 16 14 13 12 12 13 14 13 14 16 18 19 18 17 17 18 18 19 18 19 22 25 28 32 35 35 34 35 38 40 44 47 50 49 45 45 40 33 30 30 33
85 81 75 73 73 71 67 57 71 72 61 82 87 81 77 69 74 72 67 65 60 54 55 59 64 71 74 77 75 79 79 72 71 63 55 43 32 33 35 31 24 20 19 20 20 18 20 21 23 25 25 24 23 21 18 16 14 12 10 9 10 11 12 14 16 18 19 19 18 18 17 18 19 20 21 23 25 28 35 42 45 44 46 50 55 58 59 59 60 59 51 47 47 42 38 34 34
83 79 76 73 75 75 75 52 54 62 41 53 65 70 81 68 65 71 72 70 61 54 54 52 53 61 69 74 70 71 76 71 68 63 53 36 26 29 28 26 20 18 21 22 24 23 23 23 24 24 24 25 24 20 16 14 11 9 8 8 10 13 17 19 21 22 23 23 21 20 19 20 21 22 22 24 26 31 41 49 49 48 51 57 63 68 70 70 69 68 61 53 50 49 48 43 39
78 78 81 75 71 69 70 51 54 67 31 21 32 44 61 61 65 66 70 74 66 59 55 51 51 57 66 71 65 65 72 71 69 64 50 31 24 28 27 26 22 21 23 23 23 22 21 21 21 22 24 25 24 19 14 11 9 8 8 12 17 21 24 25 27 28 28 28 26 25 23 23 24 25 25 28 31 36 45 51 51 50 52 57 62 67 70 74 75 75 73 67 57 52 57 55 49
77 80 87 80 69 61 60 54 65 69 34 18 19 24 33 44 60 54 52 61 59 57 52 48 49 54 59 62 62 63 67 69 70 59 43 30 26 28 28 26 23 22 22 21 19 17 16 15 17 21 24 25 21 15 10 8 8 10 13 20 25 26 29 30 34 34 33 34 34 34 32 32 34 35 36 37 40 42 47 51 52 50 49 52 55 58 61 66 73 79 78 74 63 56 61 63 62
84 85 93 88 75 67 60 58 73 73 42 22 16 22 28 31 40 42 44 46 45 46 41 43 50 51 53 58 57 59 64 66 64 50 37 30 28 28 26 25 23 24 23 21 19 14 12 11 15 21 24 21 16 11 9 10 12 16 22 27 27 28 32 35 37 37 37 38 39 40 40 42 43 44 43 43 44 45 47 48 46 43 39 40 42 44 48 51 59 70 75 75 71 67 67 68 70
85 87 98 96 80 71 64 64 79 75 46 31 28 20 21 34 47 56 53 43 45 46 37 41 51 49 49 54 50 55 65 62 56 46 36 30 29 28 26 27 26 26 24 21 18 12 10 12 16 20 18 14 11 12 13 16 18 23 27 26 25 30 35 37 39 38 37 38 39 39 39 41 42 43 43 43 43 42 40 36 33 30 27 26 28 32 36 39 42 49 56 62 67 70 71 71 74
81 85 96 96 85 75 71 81 89 74 56 58 55 31 27 48 59 59 52 46 49 49 43 43 51 49 45 48 45 52 61 55 48 42 36 31 29 29 27 28 28 27 24 20 15 11 12 15 17 16 13 12 14 16 17 19 23 26 24 20 25 31 34 37 40 38 36 35 35 36 37 38 40 40 39 35 31 28 25 21 20 18 16 14 16 21 26 30 34 39 43 48 52 56 59 63 65
80 86 91 92 91 83 76 91 96 72 62 65 50 27 29 45 50 45 47 56 55 51 49 47 55 53 44 45 43 48 52 45 42 38 34 32 30 29 29 29 30 28 24 20 12 11 16 17 14 13 14 15 16 17 18 21 23 22 18 18 24 29 32 35 37 36 34 34 36 37 37 35 33 30 25 18 13 12 11 10 10 10 9 7 7 10 14 19 23 29 36 43 47 49 51 53 56
81 85 85 84 86 85 74 86 99 76 64 64 42 17 13 27 38 35 44 62 59 55 52 45 51 53 47 46 42 43 45 38 36 35 32 32 31 31 31 30 31 28 23 17 11 13 18 15 14 16 17 15 14 16 18 19 19 17 15 17 22 26 28 30 31 34 37 37 35 32 29 23 17 13 9 6 4 4 5 5 5 6 6 5 5 5 7 10 11 15 23 34 42 47 49 51 56
80 83 79 75 79 87 77 82 100 83 65 63 47 19 8 18 25 30 51 69 62 53 46 45 54 57 53 48 41 38 38 35 31 31 31 32 33 32 32 31 30 26 20 13 10 16 17 15 19 19 14 11 13 15 16 16 16 14 14 19 22 24 26 28 31 36 40 35 27 21 18 13 8 5 4 3 3 4 5 5 5 5 6 6 6 7 7 7 8 8 11 17 23 29 33 36 45
83 82 74 80 85 89 84 87 101 87 65 59 47 23 11 12 14 22 38 52 57 48 42 54 64 62 57 48 43 35 29 30 27 28 29 30 32 32 32 31 29 24 16 10 11 16 16 18 21 15 9 10 12 13 12 13 13 13 14 19 22 24 26 28 32 38 41 33 21 16 13 11 8 8 9 8 7 8 11 10 8 8 7 7 6 6 5 6 7 7 6 7 6 8 10 12 17
88 81 70 85 88 85 84 91 102 91 69 56 49 34 17 11 10 14 19 28 40 39 42 56 61 59 58 52 49 41 26 22 22 23 25 27 30 31 32 30 26 20 12 8 12 16 16 18 15 10 9 10 11 11 10 11 12 12 13 17 19 21 23 24 28 33 37 29 16 11 12 13 14 16 19 18 13 11 13 11 9 8 7 6 6 5 4 4 5 5 5 5 5 5 4 4 5
86 88 76 81 81 83 82 88 99 94 80 62 54 42 24 17 9 9 14 19 23 27 36 43 45 49 54 54 55 49 27 14 15 17 22 25 26 27 29 26 19 14 9 9 13 15 16 15 10 9 11 11 11 11 11 11 12 12 11 13 16 17 18 19 21 25 33 32 19 11 12 14 18 23 24 20 16 13 11 9 7 6 6 5 5 5 5 5 5 5 5 6 6 6 5 5 5
90 95 84 82 78 82 82 86 95 95 90 71 58 46 30 23 15 11 11 11 13 20 29 29 31 40 44 48 55 49 26 9 10 13 20 23 21 23 23 18 13 9 9 11 13 16 17 13 9 10 13 12 12 12 13 13 13 13 11 11 12 13 13 14 18 24 30 32 24 14 10 9 13 19 19 16 14 12 9 7 7 6 6 6 5 5 6 6 6 6 6 7 7 7 7 7 7
89 90 88 89 81 86 86 84 89 88 87 75 61 47 33 26 21 17 12 10 9 14 28 28 24 30 34 40 45 41 23 8 8 12 18 18 16 18 15 12 10 9 10 13 15 19 17 10 9 12 14 16 15 16 19 19 17 16 16 13 12 12 12 12 18 24 25 24 21 16 9 6 8 11 13 13 11 8 7 7 7 6 6 6 7 6 6 7 7 7 7 7 7 8 8 8 8
75 82 92 95 89 93 91 84 87 80 74 79 74 53 34 28 27 23 17 14 7 9 28 28 21 22 25 32 35 30 19 11 9 11 16 15 12 11 11 10 7 10 12 13 17 20 14 8 10 13 16 20 20 22 23 22 21 20 19 16 14 15 13 11 14 21 22 20 20 19 12 6 8 10 9 9 8 7 7 7 7 6 7 7 7 7 7 7 7 8 8 8 8 9 9 9 10
71 79 83 90 96 96 94 92 93 79 65 69 66 48 32 23 27 29 22 16 9 9 25 26 20 18 17 24 27 23 22 20 12 9 13 11 9 11 10 9 7 12 13 13 19 18 11 9 11 12 17 23 23 25 23 20 18 17 16 13 14 18 16 10 8 13 16 17 20 20 16 11 11 11 8 6 7 8 8 7 7 7 7 7 8 8 8 8 8 8 8 9 9 9 10 10 10
65 73 71 80 88 83 91 96 91 83 74 64 44 35 33 20 24 39 29 16 10 10 22 24 17 19 23 28 28 24 24 27 17 7 12 11 10 14 11 7 9 12 12 14 17 13 9 10 12 14 20 24 25 25 24 21 15 12 12 9 12 16 15 11 6 7 8 11 12 12 13 12 10 9 8 7 7 8 8 8 8 8 8 8 8 8 8 8 9 9 9 9 9 9 9 10 11
65 72 73 79 78 67 80 94 92 88 87 76 50 39 33 17 24 43 33 14 10 11 20 22 15 20 33 40 38 31 22 22 20 9 11 14 14 16 9 8 11 11 12 15 14 9 9 11 12 16 22 25 26 26 25 21 14 11 10 8 8 10 11 11 10 9 6 6 6 7 10 11 8 8 7 7 7 8 8 9 9 9 9 10 10 9 9 10 11 12 11 10 9 9 9 10 10
77 80 83 87 81 68 73 86 91 90 89 74 54 49 33 18 22 29 24 13 9 13 18 17 12 18 32 42 41 38 29 20 18 11 11 16 18 17 9 9 13 10 13 14 11 10 13 16 17 21 25 26 26 24 22 18 12 10 10 7 6 7 8 9 12 13 9 7 6 6 9 10 10 11 9 8 9 10 10 8 8 9 9 11 13 12 11 13 14 14 12 11 9 9 9 10 10
76 78 81 85 83 73 68 75 79 83 91 73 60 65 44 25 21 12 15 14 9 14 15 11 11 18 33 42 37 36 37 26 14 10 12 16 18 16 9 12 15 11 13 12 9 12 17 20 20 22 23 21 20 19 20 18 14 10 9 7 5 6 7 8 10 12 13 12 10 8 8 9 12 15 15 13 10 11 12 11 12 13 14 15 17 15 13 14 15 15 12 9 8 9 9 9 9
74 75 72 74 78 76 69 71 76 80 95 88 76 78 53 34 22 8 15 17 11 14 13 11 12 18 29 38 36 34 38 28 13 10 15 15 16 14 8 15 17 12 14 11 8 15 18 18 18 18 17 15 15 16 19 20 17 12 9 7 6 6 7 7 8 9 11 12 12 12 11 12 15 19 21 18 11 11 14 14 16 18 18 18 17 17 16 14 13 13 11 7 7 8 8 8 8
64 69 74 73 73 77 72 74 81 79 92 90 76 75 62 49 38 21 21 19 12 12 10 11 12 15 23 32 36 35 33 26 16 14 17 15 15 12 8 17 19 14 15 9 8 18 19 16 16 15 11 10 10 11 14 18 16 13 10 8 6 6 6 6 7 7 8 11 14 17 16 15 18 21 23 19 11 10 13 14 15 17 19 16 15 18 17 16 14 10 8 6 6 6 6 7 7
44 56 75 72 66 71 70 77 82 76 90 88 67 71 68 59 59 43 31 28 19 11 8 10 12 13 19 27 33 32 25 21 19 17 15 12 13 11 8 17 20 16 15 8 8 17 17 15 15 13 8 6 6 6 8 12 13 12 12 11 8 7 6 6 6 7 9 11 15 20 22 22 22 21 20 17 11 11 12 12 12 13 16 15 14 17 18 18 17 10 6 6 6 6 5 5 5
36 38 58 61 60 67 72 84 82 77 97 91 64 72 67 56 68 59 47 48 31 12 8 8 10 14 16 19 27 30 22 16 17 15 12 9 10 10 8 15 20 17 16 10 8 14 14 13 13 11 8 6 5 5 4 6 9 10 12 12 10 7 6 7 7 9 12 14 16 19 22 25 26 22 17 14 11 10 10 10 9 8 10 11 11 14 16 19 20 13 6 5 6 6 5 5 5
41 31 46 59 63 68 72 81 81 78 91 83 66 78 70 54 69 68 55 57 39 13 7 6 6 13 18 17 21 29 22 12 11 11 10 8 8 10 7 13 19 17 17 12 7 11 11 10 11 10 8 6 6 6 5 4 5 6 7 8 9 8 7 7 8 10 12 15 15 14 15 19 21 20 17 14 10 9 8 7 6 5 6 6 7 8 8 12 17 14 7 4 5 6 6 5 5
45 35 40 50 59 66 66 70 79 80 78 71 65 72 65 50 63 65 47 49 43 16 6 6 4 8 17 20 22 28 21 8 7 12 14 10 8 9 7 11 16 16 16 11 6 8 8 8 8 8 7 6 5 5 6 5 4 3 4 5 6 7 8 8 8 8 9 12 12 10 10 12 13 14 14 13 10 8 6 5 5 6 7 8 9 8 7 7 8 8 5 4 5 5 6 6 5
41 38 32 36 51 63 64 64 72 76 72 69 62 57 52 40 47 56 43 43 43 21 8 7 6 6 13 20 22 24 22 8 4 8 10 9 8 9 9 11 13 14 12 8 5 5 6 6 6 6 5 5 4 4 5 5 5 4 4 4 4 5 6 8 8 7 7 8 8 7 7 8 9 10 10 9 8 7 5 6 7 7 7 9 10 10 10 9 8 6 4 4 4 4 6 6 5
40 44 37 41 53 59 64 66 69 75 72 70 64 55 53 43 41 49 43 41 41 29 18 10 8 8 8 15 18 18 21 12 2 3 3 3 6 7 8 8 8 8 6 4 4 3 4 4 4 5 4 4 3 3 4 4 4 4 4 4 4 4 4 6 8 7 6 6 6 5 6 7 9 10 10 8 6 6 6 7 6 6 6 6 7 8 8 9 10 9 6 4 4 4 5 6 6
38 47 42 52 65 61 64 68 68 74 71 68 67 63 66 61 50 48 41 37 41 42 37 21 12 12 6 8 14 15 18 13 3 1 1 1 3 4 5 5 4 4 3 3 3 2 3 3 3 4 3 4 3 3 4 4 4 4 4 4 4 4 4 5 7 7 6 5 5 5 6 7 7 8 10 9 7 7 7 7 6 5 5 5 5 5 6 8 9 10 8 5 4 4 4 5 6
32 44 42 48 65 65 62 64 66 69 69 70 70 66 70 67 59 53 42 33 37 48 56 41 21 16 10 5 10 16 17 13 5 2 2 2 1 2 2 2 3 3 2 2 2 2 2 3 3 3 3 3 3 3 4 4 4 4 4 4 4 4 4 5 6 6 6 6 6 6 6 6 7 8 9 10 9 8 6 5 4 4 4 4 5 5 6 7 8 9 8 6 4 4 4 5 6
25 43 44 36 50 66 65 63 65 66 66 70 71 67 69 69 65 62 49 37 34 41 59 57 33 22 19 10 9 14 16 14 9 3 2 2 1 2 2 2 2 2 2 2 2 3 2 3 3 2 3 2 2 3 3 4 4 4 4 4 4 4 4 5 5 6 6 6 6 6 6 6 7 8 7 7 8 7 5 4 4 4 4 5 5 6 6 6 7 8 8 6 4 4 4 4 5
18 34 43 35 45 66 69 63 64 65 64 68 71 72 74 70 67 70 63 52 42 36 50 57 39 26 25 20 15 12 12 14 10 5 3 2 1 1 1 2 2 1 2 2 2 2 2 2 2 2 2 2 3 3 3 3 3 4 4 4 4 4 5 5 5 6 6 6 6 6 6 6 6 6 5 5 6 5 5 5 5 5 6 6 7 7 7 8 9 9 7 5 4 4 4 4 4
11 23 37 42 46 58 66 64 63 65 67 71 75 78 81 68 55 66 70 63 56 46 44 46 38 31 27 24 22 15 11 12 11 7 5 3 1 1 1 1 1 2 1 2 2 2 2 2 2 3 2 2 3 2 3 3 3 4 4 4 4 4 4 5 5 6 6 6 6 6 5 5 4 5 5 5 6 7 7 7 7 7 7 7 6 6 6 8 9 9 7 5 5 5 4 4 4
7 16 26 35 36 44 62 66 63 68 71 74 76 80 86 73 54 60 68 66 65 62 55 47 41 40 34 26 24 20 15 15 16 13 7 4 2 1 1 1 1 1 1 2 2 2 2 2 3 3 3 3 3 2 3 3 3 4 4 4 4 4 4 4 5 5 6 6 5 5 5 4 5 5 5 7 9 9 9 8 8 8 8 7 6 5 5 5 5 5 5 5 5 5 5 5 4
4 9 17 25 25 33 54 67 70 74 73 74 74 74 81 80 68 65 66 62 62 65 62 52 47 49 44 32 26 25 23 21 20 17 12 9 6 3 1 2 2 2 2 2 2 3 3 3 4 4 3 3 3 2 2 3 3 4 4 4 4 4 4 4 5 5 5 5 5 4 4 5 6 6 6 9 11 11 10 9 9 9 11 13 10 9 7 5 5 5 5 5 6 6 6 6 5
2 5 14 24 25 31 49 66 72 70 70 75 74 72 75 75 70 67 66 63 63 63 59 53 52 53 49 40 30 30 35 31 23 19 18 18 13 7 3 3 2 2 2 2 3 3 3 4 4 4 4 3 3 3 2 3 3 3 4 4 4 4 4 4 5 5 5 5 4 4 5 6 6 6 10 14 16 16 14 11 12 17 23 25 20 16 14 12 11 9 9 8 9 9 9 9 10
2 3 10 19 25 34 48 64 72 67 66 72 76 78 75 65 62 65 66 66 63 60 56 54 55 53 52 49 37 30 34 35 31 26 25 26 22 14 7 4 3 3 3 3 3 4 4 4 4 4 4 4 4 3 3 3 3 3 4 4 4 4 4 4 4 4 5 4 5 5 6 6 5 9 15 18 21 23 20 17 20 25 31 30 23 19 20 21 20 19 18 16 14 13 13 13 14
3 2 5 12 21 35 49 57 64 67 67 70 76 79 74 66 63 65 69 72 68 63 57 55 54 51 51 55 49 35 29 32 35 35 32 29 27 22 12 5 4 3 3 3 4 5 5 4 4 4 4 4 4 4 4 4 3 3 3 4 4 4 4 4 4 4 4 5 6 6 6 5 7 15 20 22 26 26 23 22 24 28 33 32 26 24 25 26 26 27 26 24 22 21 21 20 19
4 2 3 12 20 31 48 51 51 65 71 70 73 71 70 74 67 58 64 73 73 72 67 59 54 48 45 51 53 42 31 29 32 35 36 33 32 32 25 17 13 10 6 4 4 6 8 11 12 10 7 4 3 3 3 4 4 4 4 4 4 4 4 4 4 5 5 6 6 6 6 6 12 19 23 26 27 25 24 25 27 30 33 34 33 32 31 30 30 28 27 28 30 32 34 36 37
4 4 2 16 29 36 51 55 52 64 68 63 66 66 71 79 69 55 57 64 66 72 74 63 52 50 49 49 50 49 42 35 34 36 36 33 31 32 32 32 33 31 22 14 11 10 14 21 27 27 23 16 9 5 4 4 4 4 4 4 4 4 4 5 5 5 5 6 6 6 5 8 17 23 26 27 26 24 24 25 27 28 28 31 33 35 37 39 41 41 42 43 44 46 48 51 54
4 4 2 14 35 47 53 50 49 58 59 55 60 65 69 73 68 58 53 57 63 71 76 67 53 54 58 51 47 52 50 42 41 41 35 30 30 32 38 43 46 45 39 31 24 20 19 23 28 32 34 32 25 16 9 7 6 5 5 5 5 5 5 5 5 6 7 8 8 7 7 13 21 25 26 25 24 23 24 25 27 26 24 24 26 31 39 45 49 52 54 54 54 55 55 56 57
3 4 4 6 22 41 44 38 40 46 43 35 39 55 66 66 67 66 54 50 61 70 75 71 57 52 58 55 48 51 52 48 46 42 34 31 37 44 49 50 50 46 43 39 33 28 25 24 26 28 31 34 34 31 23 15 10 8 7 6 5 6 6 6 7 9 10 11 11 9 11 18 23 25 26 25 25 25 26 27 27 25 23 25 29 37 45 50 53 53 54 54 55 56 57 58 58
2 2 5 3 7 17 20 21 28 36 33 22 24 43 56 53 54 59 54 49 59 68 69 69 62 50 48 51 50 52 55 51 46 42 36 34 41 50 52 53 52 47 41 37 34 32 29 27 27 27 28 30 32 36 35 28 19 14 12 11 8 6 7 8 11 14 14 14 14 12 15 22 26 27 27 27 26 27 28 28 27 29 34 40 46 50 52 56 56 51 50 53 57 59 59 60 61
3 4 6 4 2 4 11 20 26 37 43 37 33 38 41 43 46 50 53 54 63 69 65 63 63 55 46 44 45 53 55 47 44 45 42 38 41 46 50 52 50 45 41 35 30 27 25 26 27 26 26 27 28 32 38 38 33 26 23 21 16 12 12 14 18 19 18 17 15 14 20 26 27 27 28 28 27 27 28 30 33 41 47 51 55 57 58 58 54 47 47 51 57 62 64 65 64
3 4 3 3 6 9 23 35 34 42 49 44 42 44 46 52 51 44 48 55 58 61 60 60 63 63 58 48 44 52 55 48 47 53 51 48 48 49 51 50 44 40 38 32 27 25 23 23 23 22 22 22 23 27 34 39 42 41 39 35 30 25 22 22 26 25 21 18 16 18 25 28 28 28 28 27 27 26 27 33 42 50 55 56 57 58 59 55 49 44 42 44 47 51 57 60 60
4 4 4 8 16 21 31 41 43 47 42 29 30 42 51 56 48 39 45 54 51 46 51 61 65 66 63 52 47 53 59 56 54 60 66 65 63 61 56 47 38 35 33 29 25 24 24 22 19 19 19 18 18 20 25 31 39 46 49 47 43 39 34 31 32 31 24 19 18 23 28 29 29 27 25 25 27 25 27 38 50 54 56 56 53 54 55 51 46 41 38 40 40 39 40 41 41
5 5 5 10 18 21 25 32 38 41 34 21 23 37 49 49 44 45 56 62 56 47 52 61 62 63 62 55 48 50 60 62 58 65 76 76 72 68 58 45 37 33 30 27 23 20 20 19 17 17 15 14 14 14 16 19 26 35 45 50 50 46 42 40 38 34 25 19 21 28 31 30 27 25 25 27 25 25 35 48 52 48 46 44 45 48 48 46 42 38 37 38 37 38 37 34 31
6 6 4 6 11 12 16 19 19 26 31 28 27 34 45 45 37 44 61 67 60 53 56 58 58 62 64 60 54 51 57 60 58 64 73 73 72 67 56 46 40 36 29 24 20 18 19 18 16 17 16 13 10 9 10 11 13 20 29 39 46 48 47 46 42 33 22 19 25 31 31 28 25 25 26 27 30 37 47 49 43 36 33 32 34 37 36 36 36 34 33 32 31 33 36 36 34
5 6 4 4 5 8 16 20 15 16 19 18 18 19 28 36 35 37 46 51 47 47 54 58 58 61 63 65 65 62 60 58 57 61 62 62 63 60 56 52 46 40 32 26 24 24 24 21 18 20 20 16 12 9 7 7 8 10 16 24 33 42 46 43 37 28 19 21 29 31 29 25 23 22 25 34 44 48 43 35 30 28 26 24 26 29 30 31 33 33 32 31 29 28 30 34 37
6 6 5 4 3 5 13 15 14 16 13 6 9 8 10 29 44 38 29 35 45 52 59 62 60 59 61 66 69 66 60 56 57 59 57 55 54 52 55 58 54 47 40 34 34 32 27 22 22 25 25 20 14 11 8 7 7 7 10 17 25 33 37 34 29 22 18 24 30 29 26 23 21 25 36 44 43 34 27 24 23 23 23 24 25 29 33 35 36 36 36 36 33 29 28 30 33
Wind_Speed
10 10 11 11 12 11 11 11 11 11 10 8 6 5 6 5 4 3 3 3 3 2 2 3 4 4 4 3 2 1 2 4 6 10 12 12 10 12 14 13 12 13 13 12 12 11 10 10 10 10 9 11 13 14 14 14 15 14 14 13 13 12 12 11 11 10 10 10 10 9 8 7 7 6 5 4 4 4 5 7 7 9 9 8 8 7 7 7 7 6 6 7 6 6 6 7 7
9 9 10 10 11 12 12 11 11 11 10 8 7 6 6 4 2 3 3 2 3 3 3 4 5 6 4 2 1 2 3 6 11 14 12 10 9 10 11 12 12 12 13 12 11 11 10 10 11 11 11 12 14 13 13 14 14 13 13 12 12 11 11 10 10 9 9 9 8 8 7 6 5 5 4 4 4 4 6 7 8 9 8 7 7 7 8 8 7 6 6 6 5 5 5 5 5
10 10 9 10 10 11 13 12 12 11 10 8 7 7 6 4 3 3 3 3 4 4 4 4 4 7 5 3 3 4 6 10 14 14 11 9 9 9 10 12 12 13 14 13 13 12 12 12 12 13 12 13 13 13 13 14 13 12 12 11 11 10 10 9 8 8 8 7 7 6 5 5 5 4 3 3 4 5 7 9 9 8 8 8 7 8 8 8 7 7 6 5 5 5 4 4 4
10 9 8 8 9 9 10 11 13 12 11 9 7 7 6 5 4 3 4 4 4 3 3 3 4 6 6 7 8 9 10 11 11 13 11 6 9 10 11 13 13 14 15 15 15 14 13 13 13 13 12 12 11 12 13 13 12 11 10 10 9 8 8 7 7 6 6 6 5 5 5 4 4 3 3 3 4 6 8 9 9 8 8 8 8 8 8 7 7 7 6 5 5 5 4 4 4
8 8 8 8 7 6 6 6 12 12 12 13 9 6 6 6 6 4 5 5 4 3 3 4 5 5 7 8 10 12 11 8 7 12 12 6 9 12 12 13 14 14 15 15 15 14 13 13 12 11 11 10 10 11 12 11 10 9 9 8 7 7 6 6 5 5 5 5 5 5 4 4 4 3 3 4 5 7 8 8 8 8 8 7 7 7 7 7 6 6 5 5 5 5 4 4 4
9 10 9 7 5 4 3 4 10 10 11 13 9 6 7 6 5 4 5 5 5 4 4 4 5 4 6 7 7 9 8 7 7 9 12 9 9 13 13 14 14 14 15 14 14 13 13 12 11 10 9 9 9 10 9 8 8 7 7 6 6 5 5 5 5 4 5 5 5 4 4 4 4 3 3 5 7 8 8 7 7 7 7 6 6 6 6 6 6 5 5 5 4 4 4 4 3
9 9 8 7 7 5 3 4 8 8 10 10 7 6 6 5 3 3 3 4 4 4 3 3 4 3 4 4 4 6 6 7 8 8 10 10 11 13 14 14 14 14 13 13 12 12 11 11 10 9 8 7 8 8 7 6 6 6 6 6 5 4 4 5 5 6 6 6 5 4 4 4 4 3 4 6 8 8 7 7 8 8 7 7 6 6 5 5 5 4 4 4 4 4 3 4 3
8 6 6 7 8 6 6 6 9 8 9 8 6 6 5 4 3 3 2 3 3 3 2 1 1 2 2 2 3 6 5 5 7 7 9 11 12 13 14 14 14 13 13 12 11 10 10 9 8 7 6 6 6 5 5 5 5 6 6 5 5 4 5 6 7 7 7 7 6 5 5 5 4 4 4 7 8 8 8 9 9 9 9 8 7 7 6 5 5 4 3 3 3 3 3 3 2
7 5 4 5 6 6 6 5 10 10 8 6 5 5 4 4 5 3 2 3 3 2 1 0 0 1 2 2 2 4 5 5 6 6 8 10 12 13 14 13 13 13 12 11 9 8 8 7 6 6 5 5 5 4 4 5 5 5 6 6 5 5 6 7 8 8 8 7 6 6 6 6 4 4 5 6 8 8 8 9 9 9 9 9 9 8 8 6 5 5 4 3 2 2 2 2 2
6 6 5 5 3 4 4 5 10 7 4 3 2 1 2 3 5 4 3 3 2 2 1 0 1 2 4 3 3 4 5 5 6 6 7 9 11 12 13 12 11 12 11 10 8 7 7 6 5 5 5 4 4 4 5 5 5 6 6 6 6 7 7 8 8 8 9 9 8 7 7 6 5 4 5 7 8 8 8 8 8 9 9 9 9 9 9 8 6 5 5 4 2 1 2 2 2
6 4 4 4 2 2 1 6 10 8 5 1 2 1 2 3 5 5 3 2 1 1 1 1 2 3 5 4 4 4 5 6 6 8 8 9 10 11 11 11 10 10 10 9 7 6 5 5 5 5 5 4 5 5 6 6 6 7 7 7 7 7 7 8 8 10 11 11 10 9 9 8 6 6 6 8 8 8 8 8 8 9 9 10 10 10 10 9 8 6 5 5 3 2 2 2 2
5 4 4 2 2 2 2 7 9 12 7 2 3 1 3 4 5 5 3 2 1 1 2 3 2 3 5 5 5 4 5 7 7 8 8 8 9 9 10 11 10 9 8 7 6 5 4 4 5 5 5 5 6 7 6 7 7 8 8 8 8 8 8 9 10 13 13 13 12 12 11 10 9 8 8 9 9 8 8 8 8 9 11 11 11 11 10 9 8 7 6 5 4 3 2 2 3
6 5 5 2 2 3 5 8 6 11 5 3 4 4 4 4 6 4 2 2 2 1 3 3 3 4 5 5 4 4 6 8 8 8 8 8 9 9 9 9 9 8 6 5 4 4 4 5 6 6 6 7 8 8 7 8 8 9 8 8 8 9 10 11 13 15 14 14 13 12 12 11 10 9 9 9 9 9 8 9 9 10 12 13 13 13 12 11 10 8 7 7 5 5 4 4 4
7 6 3 3 3 2 8 9 5 8 5 7 11 7 4 4 6 4 2 3 3 3 3 4 4 5 5 5 3 4 6 7 8 8 8 8 8 8 9 8 8 7 5 3 3 4 5 6 6 7 7 8 8 8 8 9 9 9 9 9 10 11 12 14 15 15 15 14 13 12 12 11 10 9 9 10 10 10 10 11 11 12 13 14 14 14 13 12 11 10 9 8 7 7 7 6 6
7 4 3 3 2 0 6 10 3 9 5 8 10 8 4 4 7 5 4 4 5 4 5 5 5 5 5 4 4 5 7 7 7 8 8 8 8 8 7 7 7 6 4 3 3 5 6 7 7 8 8 8 8 8 9 10 10 10 10 10 12 13 14 15 16 16 15 15 14 13 12 12 11 11 11 12 12 12 12 13 13 13 14 14 15 15 14 13 12 12 11 10 9 9 8 9 10
7 4 4 5 2 1 3 7 4 11 6 6 7 7 7 6 7 6 5 6 7 6 5 5 5 5 5 4 4 6 7 7 8 8 8 8 7 7 6 6 5 4 3 3 4 6 7 8 9 9 9 9 9 10 11 11 11 11 11 12 14 15 15 16 16 17 16 16 15 14 13 13 12 12 13 14 14 14 14 14 15 14 14 14 15 15 14 14 13 13 13 12 12 11 11 11 13
6 5 4 4 2 2 3 5 6 12 8 7 7 5 7 7 4 7 6 6 9 7 6 6 6 6 5 6 6 7 7 7 8 8 8 8 8 7 6 5 5 3 3 3 5 7 8 9 9 9 9 10 10 11 11 12 12 12 13 14 15 16 16 17 17 18 18 17 16 15 14 14 13 14 14 15 15 15 15 15 15 15 14 14 14 14 14 14 13 14 14 14 13 13 13 14 16
5 5 5 3 3 2 2 4 3 12 10 7 8 5 7 8 5 7 6 7 9 8 7 6 6 6 7 7 7 8 7 7 8 9 9 9 9 7 6 6 5 3 3 5 6 7 8 9 9 9 10 10 11 11 12 12 13 14 15 15 16 17 17 18 18 17 17 17 17 16 15 14 14 15 15 15 15 16 16 15 15 15 15 14 14 14 14 14 14 14 15 14 14 14 14 16 18
5 4 5 4 3 3 1 3 1 10 13 10 11 7 6 8 7 7 6 6 8 8 7 6 7 7 7 8 8 8 8 8 8 8 10 10 9 8 7 6 4 3 4 6 8 8 9 10 9 10 10 11 11 12 12 13 13 14 15 15 16 17 17 17 17 17 17 17 17 17 16 15 14 15 15 15 16 16 16 16 16 15 15 15 15 15 15 15 15 15 15 15 15 14 15 17 19
6 4 6 4 3 4 1 2 2 8 13 12 11 10 7 8 10 8 6 5 5 5 5 6 7 7 6 8 9 9 9 9 8 7 9 9 9 8 7 6 5 5 6 8 9 10 11 10 10 11 11 11 12 12 12 13 13 13 14 15 15 16 16 16 16 16 16 16 16 16 16 15 15 14 14 15 16 17 17 17 17 17 16 15 15 15 15 15 15 15 15 15 15 15 16 17 19
7 5 7 4 3 5 2 1 4 6 10 11 10 11 9 8 11 10 8 8 5 1 3 6 6 7 7 7 8 9 9 9 8 7 8 9 9 8 7 6 5 6 8 10 10 11 11 10 11 11 11 12 12 12 13 13 13 13 13 14 15 14 14 14 15 15 15 15 16 16 16 16 16 15 15 16 16 17 17 17 17 16 16 15 15 14 14 14 14 14 14 14 14 15 15 16 17
8 5 3 0 2 4 3 2 4 4 7 9 9 10 8 8 12 12 11 11 9 2 3 7 6 7 7 7 8 8 8 8 8 7 7 9 10 9 8 7 8 9 10 11 12 12 11 10 11 11 11 12 12 12 13 13 12 12 13 13 14 14 14 14 14 15 15 15 15 15 16 17 16 16 16 16 16 16 16 16 15 14 14 13 13 12 12 12 12 12 12 12 13 14 14 14 15
8 5 3 2 3 4 5 5 5 6 5 5 7 9 10 8 11 13 13 15 10 1 3 7 6 7 7 8 7 7 8 8 9 8 8 10 11 10 9 9 10 11 11 12 13 11 10 10 11 11 11 11 11 12 12 11 11 12 12 13 13 13 13 14 14 15 16 16 15 14 15 15 16 16 16 15 15 15 15 14 13 12 12 12 12 11 12 12 11 11 11 12 13 13 13 13 14
10 6 3 2 4 6 10 6 6 8 7 7 6 7 10 9 9 11 13 17 12 4 2 7 7 8 7 8 7 7 8 9 10 9 9 10 10 9 9 10 11 12 12 13 12 11 10 10 11 11 11 10 10 10 10 10 11 11 11 12 12 12 13 13 14 14 15 15 14 14 14 13 14 14 14 14 14 14 13 12 12 11 11 11 11 11 11 11 11 10 10 11 11 11 12 12 13
8 2 1 3 5 12 14 9 6 6 7 9 8 6 8 9 6 9 14 17 12 6 2 7 8 8 7 7 8 8 8 9 10 9 9 9 9 8 9 10 12 13 13 13 12 10 10 10 10 10 10 9 9 9 9 10 10 10 10 11 11 11 12 13 14 14 14 15 14 13 13 13 12 12 12 12 12 12 12 11 11 10 10 10 10 10 10 10 10 9 9 10 10 10 11 11 12
2 8 9 10 14 20 15 10 8 6 8 11 10 9 8 7 4 8 14 16 12 6 4 8 9 8 7 7 8 8 8 8 9 9 9 8 9 9 9 11 13 13 13 12 11 11 10 10 10 10 10 9 8 8 8 9 9 9 9 10 10 11 12 12 12 13 13 13 13 12 12 12 11 11 11 11 11 11 10 10 9 9 9 9 9 9 9 10 10 10 10 9 10 10 10 10 11
2 8 12 15 20 22 12 6 9 11 13 11 8 10 8 5 5 9 13 15 11 6 5 9 10 8 8 8 8 8 8 8 9 9 9 10 10 10 10 13 14 13 13 13 12 11 11 11 11 10 10 8 8 7 8 8 9 9 9 10 10 10 11 11 11 11 11 12 11 11 10 10 10 10 10 9 9 9 8 8 8 8 9 9 9 9 10 10 10 10 10 9 10 10 10 10 10
9 1 9 12 19 22 14 11 14 13 14 11 6 8 8 5 9 11 11 14 11 7 7 9 9 9 8 8 8 7 8 9 9 9 10 12 12 11 12 14 15 14 14 14 12 12 12 11 12 11 10 9 8 8 8 8 8 8 9 9 9 9 10 10 9 10 10 9 9 9 9 8 8 8 7 7 7 7 7 7 7 8 8 8 8 9 10 10 10 10 9 9 10 10 10 10 11
14 12 13 15 18 23 22 19 19 13 12 13 8 9 10 6 11 12 6 11 12 8 8 8 8 9 8 7 7 6 7 8 9 11 11 12 12 12 13 15 15 15 14 14 13 13 13 12 12 11 10 8 8 8 7 7 7 8 8 8 8 8 9 9 8 8 9 8 8 7 7 6 6 6 6 6 6 6 6 7 7 7 7 8 8 9 9 9 10 10 9 10 9 9 9 10 10
17 20 22 24 24 22 25 20 16 12 12 15 12 10 12 8 11 12 4 9 13 8 8 8 6 6 7 7 6 6 6 6 9 11 11 12 13 12 14 16 15 15 14 14 14 13 13 12 11 10 9 8 8 7 7 6 6 7 7 7 7 7 7 7 7 7 7 7 6 5 5 4 4 5 5 5 5 6 7 7 8 8 8 8 8 8 8 8 9 9 9 10 9 9 9 10 9
17 19 26 29 28 24 21 16 14 13 14 17 12 11 13 10 12 14 7 9 13 9 7 8 6 5 5 6 6 5 5 6 8 10 11 12 13 14 15 16 16 15 14 13 13 13 13 12 11 9 8 8 8 7 6 6 6 6 6 6 6 5 6 6 6 5 5 5 5 4 3 3 3 4 5 5 5 6 6 7 8 8 7 8 8 8 8 8 8 9 10 10 10 9 9 10 10
16 16 25 28 25 18 11 13 16 11 14 19 13 12 14 11 14 16 11 10 13 10 7 7 7 5 4 5 5 5 5 6 6 8 9 11 13 14 15 16 16 15 14 13 13 13 12 11 10 9 8 8 7 7 6 5 5 5 5 5 5 5 5 5 5 4 4 4 3 3 2 2 3 4 4 5 5 5 6 6 7 7 7 8 8 9 9 9 9 10 11 11 10 10 10 10 11
20 10 18 23 21 13 6 10 15 9 15 20 15 17 17 13 15 18 14 10 13 11 7 7 7 6 5 4 5 5 6 6 6 7 8 10 12 14 15 16 16 15 14 14 13 13 11 10 10 9 8 7 6 6 5 5 4 4 4 4 5 5 4 4 4 3 2 2 2 2 2 2 3 3 4 4 5 6 6 7 7 8 8 9 10 10 11 10 11 12 12 12 11 11 11 10 11
21 12 14 18 17 12 8 10 13 15 20 20 17 18 17 14 15 18 15 10 12 12 7 7 6 7 6 4 5 5 6 7 7 7 8 10 11 13 14 15 15 14 14 14 13 12 11 10 9 8 7 6 6 5 5 4 4 3 3 3 4 4 4 3 3 2 1 2 2 2 2 2 2 3 3 4 4 5 6 7 8 8 9 10 11 12 12 12 12 12 12 12 12 12 11 11 11
20 15 10 10 16 18 17 15 14 16 19 19 18 16 14 14 14 17 16 10 11 12 9 7 6 6 7 5 5 6 7 7 7 8 8 9 10 11 13 14 14 14 14 13 12 12 11 10 9 8 7 6 5 5 4 3 3 3 2 2 2 2 3 3 2 2 1 1 2 1 1 2 3 3 4 4 4 5 6 7 8 9 10 11 12 13 13 12 12 13 13 12 12 12 11 11 11
20 17 8 7 15 18 18 18 17 17 18 20 21 18 17 18 16 18 18 11 10 12 10 8 6 6 7 6 6 7 8 8 8 8 9 9 10 11 11 12 13 13 13 12 12 11 10 10 9 8 7 6 5 5 3 3 3 2 2 2 2 2 2 2 2 2 1 1 1 0 1 2 3 4 5 5 5 6 6 8 9 11 12 13 14 14 14 14 14 13 13 13 12 12 12 11 11
20 21 12 14 14 10 9 12 20 22 21 26 29 24 22 21 18 21 21 14 11 11 11 10 7 6 7 6 6 7 9 10 9 9 9 10 11 11 11 11 11 11 11 11 11 11 10 9 9 8 7 6 5 5 3 2 3 3 3 3 3 3 2 2 1 2 2 2 1 1 2 3 3 4 5 5 7 8 9 10 11 12 14 15 16 16 16 16 15 14 14 14 13 13 13 12 11
20 23 19 18 18 14 7 8 18 25 25 28 31 26 23 21 18 21 23 18 13 11 12 12 9 8 7 6 6 8 9 9 9 10 10 10 11 12 12 12 12 12 12 11 11 10 9 9 9 8 7 7 5 5 4 3 3 3 3 3 3 3 3 3 2 3 3 3 2 2 2 3 5 5 7 8 9 10 12 13 14 15 16 16 17 17 17 16 16 15 15 14 14 13 13 13 13
22 23 24 22 21 20 17 15 19 25 26 26 28 25 24 23 18 21 24 21 15 12 13 13 11 9 7 6 6 7 10 10 10 12 12 12 12 12 12 12 12 12 11 11 10 10 10 10 10 9 9 8 6 5 5 4 4 3 4 4 4 4 4 4 4 4 4 4 3 4 4 5 7 8 9 11 12 13 15 16 17 18 18 18 18 18 18 17 15 15 15 15 15 14 14 14 14
24 24 24 22 21 23 22 17 19 25 27 26 28 27 28 27 21 20 23 22 18 14 13 14 13 11 9 8 7 7 9 10 11 13 13 13 12 12 12 12 12 11 10 10 10 10 10 10 10 9 9 8 7 6 6 5 5 5 5 5 5 5 5 5 5 5 5 5 5 6 7 8 9 11 12 13 15 16 17 18 18 19 19 18 18 18 17 16 15 15 15 16 16 15 15 14 14
25 25 25 23 22 23 25 21 17 23 29 29 29 27 29 30 23 19 22 23 22 18 15 14 13 13 12 9 8 8 9 9 11 12 13 13 13 13 13 13 12 11 10 10 11 11 10 10 10 9 8 8 8 8 7 7 7 7 7 7 7 6 6 7 6 6 6 6 7 8 9 10 12 13 14 16 17 18 18 18 18 17 17 16 16 16 16 16 16 16 16 16 16 15 15 15 15
26 27 27 27 23 21 28 28 19 18 29 32 30 27 27 31 25 19 21 23 24 21 18 17 15 15 14 10 9 9 10 9 10 11 12 12 12 13 13 12 12 12 12 12 12 12 11 10 9 9 9 8 9 9 9 9 9 9 9 9 8 8 8 9 8 8 8 8 9 10 11 12 14 15 16 17 17 17 17 16 16 15 15 15 16 16 15 16 16 16 16 16 15 15 15 16 16
28 26 27 28 27 23 29 29 19 16 26 30 31 28 27 32 28 21 21 23 24 24 21 19 18 18 15 12 11 10 11 11 10 11 11 12 12 13 14 13 13 13 13 13 13 12 11 10 9 9 9 8 9 9 9 10 11 11 11 11 10 10 10 10 10 10 10 10 11 12 12 13 15 16 16 16 16 15 14 14 14 14 14 15 15 15 15 15 15 15 15 15 15 15 15 16 17
28 24 26 28 27 26 30 28 20 17 23 28 33 31 30 35 33 27 28 28 25 25 24 21 21 19 16 15 13 12 12 12 11 11 12 13 13 13 15 15 14 14 13 13 12 12 11 11 11 10 9 9 8 8 9 10 11 12 12 12 12 12 12 12 12 12 12 11 12 13 13 13 15 16 16 15 14 13 13 13 13 13 14 15 15 14 14 14 14 14 14 15 15 15 15 16 17
28 23 27 29 26 28 30 30 26 24 25 27 31 33 33 34 33 30 32 33 29 26 24 23 22 20 17 16 16 14 14 13 12 12 12 13 13 14 15 16 15 14 13 13 13 13 13 13 12 11 10 10 9 8 9 10 11 12 12 13 13 13 13 14 14 13 13 13 13 14 14 14 15 15 14 13 13 12 12 12 13 14 15 15 14 13 13 13 13 13 13 14 14 15 15 16 16
28 24 28 28 28 31 32 32 30 29 33 32 29 34 37 36 34 31 29 29 30 28 25 24 23 21 19 18 18 18 16 14 13 13 13 14 15 15 15 16 16 15 15 15 14 14 15 15 14 13 13 12 12 11 10 11 11 12 13 13 14 14 14 15 15 14 14 14 14 15 15 15 14 13 12 12 12 12 13 13 13 13 13 13 13 13 13 13 13 13 13 14 14 15 15 15 16
28 27 30 30 30 31 33 33 30 31 39 36 30 34 37 38 38 33 28 26 26 28 27 24 23 22 22 21 20 21 20 16 15 15 15 16 16 17 16 15 17 18 18 18 17 16 16 17 17 17 16 15 14 13 13 13 12 13 13 14 15 15 15 15 15 15 15 15 15 16 16 15 14 12 11 12 12 12 12 12 12 12 12 12 13 14 15 15 15 15 16 16 17 17 17 18 17
30 30 31 32 31 30 33 34 32 37 43 37 31 32 33 38 40 34 29 27 27 30 30 27 24 22 24 24 22 22 22 19 18 17 17 17 18 18 16 15 16 17 18 19 19 18 18 19 19 19 18 17 17 16 15 15 14 14 14 15 16 16 16 16 16 16 16 16 16 16 15 14 12 11 10 11 11 11 11 11 11 11 11 12 13 13 14 16 16 17 18 19 19 20 21 21 21
31 32 34 35 34 32 35 38 38 42 43 37 33 35 37 39 40 37 33 29 28 29 30 30 27 24 24 24 22 23 22 20 19 19 17 17 17 17 16 15 14 14 17 19 20 20 20 20 21 20 19 18 18 18 18 17 16 16 16 16 17 17 17 17 17 17 16 16 16 15 14 13 11 10 9 10 10 10 11 11 11 12 12 13 13 13 14 15 17 18 19 21 21 22 22 23 23
31 33 36 39 39 38 39 42 43 44 44 40 34 36 42 41 40 41 37 29 26 27 27 28 28 27 25 23 22 22 21 21 21 20 18 17 17 17 16 14 13 15 18 20 20 21 22 22 23 22 21 19 19 19 19 20 19 18 18 18 18 18 19 18 17 16 16 15 15 14 13 11 10 8 9 10 10 10 11 12 13 13 13 14 14 15 15 16 17 19 21 22 23 23 23 23 24
31 32 35 40 42 42 43 43 45 44 42 40 35 37 41 41 41 41 36 30 26 26 27 27 29 29 27 26 24 22 21 23 22 20 19 19 18 18 16 14 14 17 20 21 21 22 23 23 25 24 23 21 20 20 20 20 21 20 19 19 20 20 20 20 18 16 15 15 15 13 11 10 8 8 9 11 11 12 12 13 13 14 14 14 15 17 17 16 18 21 22 22 22 23 23 23 23
31 30 34 37 38 42 44 43 43 41 38 37 37 38 39 36 36 35 33 30 27 27 29 28 30 30 28 28 26 24 25 25 22 19 19 19 19 19 18 16 16 19 21 21 21 22 23 24 25 25 25 23 21 20 21 21 22 21 21 21 21 22 22 21 18 16 15 15 14 11 9 8 8 9 11 12 13 13 13 13 13 14 15 16 17 18 18 18 20 22 22 22 21 21 21 22 22
30 32 34 30 31 39 43 42 40 37 37 40 39 37 35 34 35 32 29 29 28 27 26 26 29 31 30 27 24 24 26 24 21 18 18 20 21 21 20 18 19 21 21 20 19 20 22 23 24 25 24 23 21 20 21 22 22 22 23 23 24 24 23 21 19 17 16 15 12 10 9 8 10 12 13 13 13 14 14 13 14 15 16 18 18 19 19 20 21 21 22 23 23 21 21 22 23
32 34 32 27 31 39 42 42 40 38 42 45 43 39 35 34 35 30 25 26 28 26 23 23 27 31 33 30 24 23 22 20 19 19 19 21 22 23 23 22 22 21 20 20 19 20 21 21 22 22 22 22 21 20 21 22 23 23 25 25 26 25 24 21 19 17 16 14 11 9 9 10 12 13 13 13 13 14 14 13 14 15 17 18 20 20 19 20 20 21 23 24 24 23 23 23 24
33 33 31 31 36 40 42 45 43 43 47 48 46 41 36 36 36 29 23 24 27 25 23 22 22 27 33 31 26 24 21 19 20 20 19 18 19 20 23 24 24 22 21 21 22 22 21 20 19 18 19 20 21 20 21 23 24 24 25 26 26 25 23 21 18 18 16 12 10 9 9 12 14 14 13 13 14 14 13 13 14 16 17 18 18 19 18 19 21 22 23 24 25 25 25 26 27
33 33 34 35 37 38 40 43 45 47 48 48 46 42 38 38 37 30 25 27 28 25 22 21 18 21 29 30 27 24 20 19 21 20 17 14 15 19 22 24 24 22 22 22 23 23 22 20 17 15 15 16 17 17 19 21 23 24 25 26 26 25 23 21 19 18 15 11 9 9 11 13 14 13 13 13 14 14 13 13 14 14 14 15 16 17 18 20 21 23 24 24 25 25 26 27 28
35 36 38 39 39 37 36 38 43 46 48 48 48 48 46 41 36 32 29 30 31 26 23 23 21 21 25 28 27 23 20 20 21 20 17 15 17 21 23 24 24 23 22 22 23 23 22 20 17 13 12 12 12 13 14 17 20 22 24 25 25 24 23 20 18 16 13 10 9 10 13 15 14 13 12 13 13 13 12 12 13 13 14 15 16 17 19 21 23 25 26 26 27 27 27 28 29
35 36 37 38 39 39 38 40 42 43 45 47 47 50 48 39 31 30 30 29 27 25 24 25 25 24 24 24 25 24 22 22 22 20 18 17 18 20 21 23 25 24 21 21 23 23 21 18 15 11 10 9 9 9 10 13 16 19 21 22 22 22 20 17 15 13 11 10 10 12 14 14 13 12 12 12 12 12 12 13 14 15 17 17 18 19 20 23 25 27 28 29 29 30 30 29 30
Wind_Direction
97 98 96 90 90 96 96 97 99 93 88 82 80 87 81 72 73 81 73 38 9 357 333 343 355 350 321 306 271 278 122 144 121 104 100 94 99 104 100 99 92 90 94 92 92 93 93 92 88 88 90 89 88 90 94 95 93 93 94 95 96 98 98 96 94 92 89 91 95 96 94 93 93 94 100 105 103 96 87 83 75 71 70 68 67 67 67 69 72 69 68 75 76 78 78 74 70
98 100 101 104 98 94 94 89 89 89 86 83 78 78 71 59 57 67 64 37 21 34 40 21 5 6 350 317 251 200 134 129 122 109 102 96 92 95 95 94 94 93 95 94 93 94 95 93 89 88 90 90 89 92 95 93 91 90 91 92 92 94 93 92 91 90 91 95 97 96 94 93 95 98 105 108 106 95 81 75 70 68 67 66 63 61 59 58 61 61 60 66 71 70 65 62 60
103 98 96 105 102 96 95 85 83 85 77 78 75 67 70 68 55 56 46 21 26 30 36 40 25 28 39 88 109 128 126 128 122 109 100 100 96 91 94 95 96 98 98 97 95 96 97 95 92 90 89 90 92 92 91 88 87 86 87 88 90 91 88 88 88 92 95 96 93 90 91 94 96 101 108 108 99 84 75 72 69 66 63 59 56 56 54 50 50 50 48 50 57 58 56 55 51
105 92 88 104 105 109 112 85 74 76 64 67 71 59 64 64 46 47 49 28 30 29 39 55 54 50 67 100 112 117 123 130 125 111 101 97 102 97 96 98 98 99 98 98 98 97 96 95 93 92 90 90 90 87 85 84 83 81 82 83 84 83 83 87 90 94 93 89 88 88 93 96 97 101 103 96 84 74 70 70 68 64 58 53 51 51 49 46 43 41 39 37 38 41 45 52 54
115 103 96 106 111 121 136 92 70 70 62 60 57 50 52 51 41 47 59 51 45 42 62 77 72 60 74 97 116 119 122 128 124 114 106 98 104 103 101 100 97 96 96 97 98 98 96 95 93 92 90 89 86 81 79 78 76 76 75 76 77 79 83 88 90 86 83 83 85 88 91 92 95 95 81 72 69 65 63 64 63 61 57 50 46 42 40 40 36 33 31 30 31 30 31 39 44
111 108 102 101 102 92 133 113 78 67 64 58 42 43 47 39 38 51 60 58 51 46 62 82 81 61 79 101 116 120 132 132 122 114 109 108 107 108 107 102 99 97 97 98 100 100 99 96 93 91 88 85 80 75 73 73 74 74 75 77 77 79 82 80 76 73 74 77 78 78 80 87 86 74 62 64 61 56 53 53 54 54 51 44 38 32 26 26 26 24 24 25 28 30 28 31 30
99 94 94 83 73 56 47 90 88 60 57 55 34 40 40 21 9 21 48 56 45 40 54 77 97 87 91 118 125 125 148 142 129 119 114 118 115 114 112 106 102 99 98 99 99 98 96 94 91 89 87 82 76 73 73 75 75 77 78 78 77 76 73 66 60 64 67 67 69 74 81 83 76 64 59 60 57 50 43 42 45 45 40 36 33 26 14 6 6 4 11 22 28 34 29 27 23
109 93 83 72 67 57 48 73 100 79 58 56 37 33 23 1 335 323 1 39 32 23 45 61 114 113 106 128 135 137 160 154 139 128 124 124 121 120 116 112 107 103 101 99 98 94 91 89 89 90 92 88 80 76 76 76 75 75 77 76 75 69 58 56 57 59 62 65 73 81 85 82 75 62 55 57 54 46 40 39 39 38 34 35 37 32 18 2 353 345 346 7 26 35 30 18 15
114 96 70 64 67 68 70 92 95 77 54 49 37 29 11 348 320 302 339 355 352 352 24 24 345 127 132 144 156 154 168 166 146 135 132 127 123 123 119 117 114 111 107 104 103 98 96 95 98 104 106 98 87 79 72 69 72 74 77 77 72 62 57 58 60 64 69 76 81 87 88 86 79 63 54 55 53 44 39 39 36 32 31 35 39 37 31 19 1 350 340 341 5 28 30 13 357
114 90 66 56 59 70 87 97 75 48 24 37 18 25 351 331 307 300 325 318 323 326 330 303 262 170 154 164 188 182 182 174 151 142 139 131 126 124 122 119 117 117 114 112 110 107 109 110 114 119 115 104 89 73 66 64 70 77 78 78 72 62 63 68 71 77 83 86 87 89 90 90 83 70 61 57 55 48 41 39 31 27 29 32 35 37 38 31 17 3 350 344 346 9 20 12 1
111 72 47 31 12 66 58 64 47 346 322 321 276 282 282 286 287 295 311 306 315 294 248 247 262 201 177 178 192 195 191 175 154 148 146 137 129 125 124 121 118 116 115 113 111 112 114 117 121 115 107 96 81 70 68 71 76 81 83 79 73 70 74 80 87 92 93 92 91 92 95 96 90 79 68 63 61 55 45 37 28 26 29 32 33 36 39 37 30 19 9 5 10 15 13 11 9
123 90 86 79 50 77 348 45 23 321 317 271 267 313 271 262 276 283 293 300 296 262 262 250 250 216 190 180 187 195 187 166 155 151 148 142 131 127 127 125 121 115 112 109 107 107 105 110 112 104 96 86 79 77 79 83 86 88 88 81 76 79 85 91 96 99 99 97 96 96 97 97 91 83 74 69 65 59 51 44 38 35 35 37 39 40 40 42 41 35 29 26 33 31 16 8 8
156 147 126 128 85 77 43 53 340 311 6 34 338 319 278 270 271 266 255 290 287 254 273 257 233 214 193 183 188 191 181 166 159 156 152 145 135 133 132 127 125 120 113 109 106 103 100 102 102 97 89 85 87 89 91 91 93 92 86 82 84 88 92 97 101 103 103 103 102 100 98 97 93 87 79 74 70 64 59 57 56 51 48 48 49 49 47 47 48 46 43 40 42 42 36 28 21
163 169 156 127 103 73 60 71 273 290 38 2 334 314 288 277 265 265 261 256 252 255 260 253 241 224 198 187 192 193 190 178 169 162 155 150 144 141 138 132 129 126 122 113 106 104 105 103 100 96 90 91 95 97 97 95 94 92 88 88 91 93 95 100 104 105 106 106 105 102 99 99 96 91 85 80 78 76 72 71 70 65 60 58 58 58 56 53 52 51 50 48 45 45 45 45 42
161 154 163 180 145 124 70 84 245 277 337 346 328 311 311 283 267 267 264 248 240 251 252 245 245 234 212 203 201 200 200 193 184 173 163 160 156 148 145 141 137 138 136 121 109 114 113 107 104 102 100 99 101 99 97 96 96 95 94 94 94 95 98 102 105 107 107 106 105 103 102 100 98 95 90 87 85 85 82 79 76 71 66 63 63 63 63 61 59 57 55 53 50 49 50 53 54
163 155 180 218 195 135 106 101 205 261 297 344 320 304 305 288 277 267 247 249 249 246 250 248 247 235 220 227 222 210 206 206 203 190 178 171 164 156 153 150 150 152 138 123 119 122 118 112 112 110 107 104 101 100 98 99 101 101 98 96 96 97 99 102 105 107 107 105 104 103 102 101 99 97 92 89 87 86 83 80 77 73 68 66 66 66 67 66 65 64 60 57 54 53 52 55 62
153 171 182 216 217 146 142 136 214 261 288 324 314 299 293 296 291 265 238 241 254 251 254 255 248 235 227 238 234 224 219 220 217 201 192 181 172 167 164 164 164 161 133 130 130 124 119 117 117 111 105 102 100 100 101 104 104 102 100 98 97 98 99 101 103 106 106 105 103 103 103 103 101 97 92 88 86 85 82 79 76 73 70 67 66 65 66 65 65 66 65 63 60 58 57 59 67
152 180 170 188 230 189 140 119 230 286 304 319 319 319 301 311 307 270 253 240 252 253 252 252 247 244 244 249 243 238 229 225 224 209 202 193 183 176 173 180 180 168 139 137 134 126 122 120 116 107 102 100 100 101 103 106 105 102 100 100 99 99 100 101 103 105 106 104 104 105 106 104 101 96 91 87 85 84 83 79 77 74 72 69 67 66 65 66 65 64 64 63 61 58 58 59 66
158 180 175 193 244 231 209 87 182 292 310 319 318 324 319 311 306 292 276 245 246 254 254 247 250 255 255 257 253 249 239 228 227 222 215 204 191 182 181 186 185 169 146 141 135 130 126 120 112 105 103 101 101 103 107 109 107 104 102 102 101 101 102 102 104 105 106 105 104 106 107 105 100 95 92 88 85 85 85 84 82 79 77 74 71 69 67 66 63 61 59 59 58 57 57 58 66
159 192 208 216 248 255 272 39 260 278 300 313 315 320 333 311 304 310 304 274 251 253 252 244 248 259 258 257 258 255 247 234 226 229 228 212 194 187 187 187 182 167 149 141 137 133 126 117 110 106 104 102 102 103 107 110 110 108 106 105 103 103 104 104 104 105 106 105 105 105 106 104 101 100 97 94 90 88 87 87 85 83 81 79 76 74 70 67 63 60 56 53 52 53 54 55 61
150 179 209 213 257 286 323 217 255 272 285 300 309 312 328 314 303 308 307 299 295 305 236 245 250 258 259 256 262 258 248 238 224 224 230 213 193 190 189 181 170 159 149 142 139 133 124 115 110 109 106 102 101 101 104 107 110 110 108 107 106 107 106 106 105 104 104 104 105 106 106 105 104 105 102 98 95 92 89 87 86 85 83 81 79 77 74 71 67 63 57 52 47 44 45 48 53
151 138 165 196 305 297 327 245 259 283 281 292 304 312 328 314 302 305 304 295 297 325 235 262 269 260 260 258 263 259 247 239 225 214 221 211 194 191 184 172 161 153 148 144 141 134 124 119 115 113 109 104 100 99 100 102 107 110 109 109 110 111 109 107 106 105 105 104 106 107 106 105 105 105 103 101 98 94 91 87 85 85 84 82 81 79 76 72 66 62 57 50 45 39 36 38 44
156 137 119 13 322 294 322 329 309 301 290 286 297 320 332 319 305 306 304 293 298 45 218 274 286 267 263 261 262 255 247 244 231 207 206 209 198 192 180 165 157 150 149 146 143 136 127 124 121 118 113 108 102 98 98 102 106 108 110 111 112 113 110 109 109 109 109 109 109 108 105 105 104 103 103 102 99 94 91 89 86 84 81 78 76 72 69 67 61 56 51 45 42 36 32 31 34
163 162 157 31 322 315 317 311 300 294 294 288 279 311 320 311 300 296 290 287 308 43 211 276 286 275 273 269 265 253 248 248 238 211 201 210 201 188 174 161 155 150 150 148 144 137 130 126 123 119 116 112 105 101 101 103 104 107 109 110 112 114 112 110 111 111 110 109 109 108 105 102 99 98 99 98 95 94 92 89 86 82 79 76 72 68 64 62 59 54 49 45 42 36 31 29 29
168 127 39 14 322 320 312 286 282 279 285 298 296 310 309 307 295 269 272 281 307 7 276 277 285 282 281 275 269 259 253 248 240 215 199 210 201 183 166 158 155 151 149 148 143 137 133 128 125 121 120 117 111 106 104 105 107 109 111 109 110 112 112 112 112 111 109 107 106 105 103 99 95 94 93 92 90 90 91 89 86 85 83 81 77 70 64 62 60 57 51 45 42 37 33 29 27
57 9 349 340 316 311 299 275 292 278 272 283 287 298 296 315 308 248 271 285 303 337 303 286 290 284 275 271 268 268 264 248 234 213 197 198 193 179 166 161 156 151 149 148 144 139 135 130 129 127 126 124 118 112 107 108 110 115 114 110 109 109 110 113 115 113 110 108 105 101 100 99 96 90 86 84 83 83 85 86 87 87 83 79 76 69 63 59 55 51 46 40 35 33 31 27 23
116 342 327 323 308 303 294 286 297 280 282 273 264 286 282 314 298 259 278 289 304 330 300 289 291 283 268 266 267 272 274 252 228 209 190 185 188 181 170 164 157 153 152 151 149 142 137 134 134 132 131 128 123 116 110 107 109 116 117 113 112 110 108 110 112 112 110 107 103 99 97 96 91 85 83 81 81 81 79 77 76 76 70 65 62 58 54 51 48 44 41 36 28 24 22 20 16
136 258 294 296 288 290 294 312 306 278 275 273 257 273 277 307 287 281 288 286 310 334 294 291 290 283 269 266 267 268 276 259 227 202 190 184 186 184 173 166 161 159 158 157 152 144 139 138 135 133 132 129 125 119 112 109 109 113 116 115 115 113 112 111 112 114 114 110 105 101 95 91 89 87 83 79 81 81 74 67 62 61 59 54 49 46 46 43 41 36 34 32 25 17 11 11 10
142 177 213 233 254 277 285 299 308 283 249 258 263 262 280 302 283 290 291 280 311 332 299 298 288 280 270 267 271 268 275 262 225 200 194 188 186 185 174 170 168 165 163 160 154 147 143 140 136 133 133 133 130 125 120 116 114 114 115 117 119 119 120 119 118 117 116 116 112 109 103 97 92 87 80 75 74 67 61 55 50 49 48 47 42 39 40 39 37 30 26 26 22 13 3 1 5
176 184 198 215 225 249 267 279 302 294 251 253 259 261 283 299 284 293 296 283 309 326 307 306 297 282 266 264 270 269 276 255 223 204 194 187 185 183 175 173 174 169 166 162 157 151 148 143 139 136 134 134 134 133 131 125 118 117 116 119 124 128 129 127 125 120 115 114 112 110 110 104 89 79 75 74 69 58 53 48 44 42 39 36 33 30 31 31 32 26 19 18 13 7 359 352 358
211 197 201 212 213 223 246 264 300 305 263 253 254 261 282 290 277 285 298 294 303 314 311 311 309 288 255 255 259 263 265 237 222 215 197 185 183 182 178 176 177 174 170 166 162 156 151 149 146 141 136 132 130 131 132 130 125 124 122 126 133 137 137 133 131 124 114 109 103 104 102 85 66 64 67 67 63 56 49 42 37 33 31 25 18 16 18 17 16 13 11 11 5 1 356 346 346
244 216 201 206 212 217 227 256 290 300 252 252 260 266 279 284 270 276 291 291 292 300 304 306 309 293 256 247 249 242 243 226 218 230 210 187 186 185 181 179 180 179 175 171 167 161 157 155 152 148 143 136 130 125 125 130 133 134 136 140 142 144 141 136 133 124 110 97 87 83 72 54 53 56 59 58 51 45 40 34 24 17 14 9 3 1 2 1 359 359 360 1 359 357 352 343 338
257 233 179 187 201 204 187 240 267 258 242 255 263 267 271 273 266 271 286 288 286 293 295 300 307 295 272 248 245 227 226 221 206 222 215 193 189 188 184 183 183 182 180 178 172 167 165 162 160 158 153 146 138 128 121 126 138 144 145 147 148 148 144 135 127 120 103 88 72 66 63 58 55 48 45 44 33 22 20 18 9 3 359 353 351 350 350 350 346 346 348 350 352 352 347 339 335
251 237 177 176 181 194 228 261 265 244 247 258 260 266 265 257 255 263 278 288 285 288 288 291 302 297 279 247 238 225 219 217 197 196 201 195 190 189 188 186 187 186 184 183 177 173 171 170 170 168 164 157 148 140 131 129 142 149 147 149 155 154 148 134 122 115 94 83 78 69 70 61 45 37 31 25 19 12 8 4 358 353 351 347 344 343 342 341 337 335 336 340 344 344 338 335 335
244 243 224 200 184 195 226 257 274 250 246 259 265 273 270 259 256 262 275 284 282 284 281 277 289 298 284 254 233 225 217 213 196 184 184 186 189 190 190 188 189 189 188 185 180 179 179 180 181 179 177 170 159 157 149 139 145 154 159 161 166 165 154 142 125 111 104 101 103 77 49 35 16 15 14 6 5 5 1 353 346 342 342 340 338 336 334 332 330 329 328 331 335 333 328 329 334
245 246 235 177 181 184 195 223 253 249 241 257 273 287 287 277 266 264 273 277 276 282 279 272 275 287 283 262 233 223 219 213 201 188 179 177 183 187 188 190 190 189 189 187 184 186 186 187 189 189 191 185 172 173 173 153 150 160 174 179 187 196 183 157 133 129 157 170 138 45 4 9 4 359 353 348 345 344 344 340 333 331 332 330 329 328 327 326 326 325 324 325 326 323 319 323 328
242 240 206 151 173 183 167 213 248 255 255 265 276 283 285 285 271 262 269 270 270 280 280 272 263 268 276 266 240 225 222 217 207 197 190 183 180 183 186 187 190 191 191 191 191 193 194 194 195 195 203 204 186 183 192 178 164 169 182 194 203 209 208 183 161 166 193 232 268 321 338 339 338 338 329 325 326 324 324 325 323 322 321 321 321 321 321 321 320 320 321 321 321 317 315 317 319
233 237 221 187 191 205 206 235 252 259 262 266 272 273 279 288 273 259 266 268 263 268 275 272 261 254 257 265 251 234 231 223 213 207 202 195 188 187 188 188 191 194 197 198 197 199 200 203 204 204 211 217 207 200 209 203 188 187 193 208 215 214 211 201 197 202 214 240 268 287 308 312 315 316 313 313 315 314 315 317 316 315 314 314 315 316 317 317 315 317 319 319 318 314 312 312 312
224 231 234 215 191 189 206 234 256 265 268 265 267 271 278 285 276 262 266 269 264 258 264 266 261 252 245 251 252 243 240 229 220 217 208 202 200 196 194 195 198 199 202 204 204 206 208 213 215 214 218 225 223 218 222 220 213 210 211 219 222 218 218 214 214 220 230 245 265 286 295 299 302 305 307 309 311 311 313 315 314 313 313 314 315 316 316 315 314 317 320 321 318 315 312 311 310
218 219 230 216 182 172 186 212 247 262 269 270 270 274 276 275 272 266 264 267 268 260 255 255 255 255 245 240 246 251 246 234 228 224 215 207 206 205 203 202 204 204 206 207 211 215 217 222 227 227 228 233 235 233 232 231 228 225 224 227 227 223 224 224 224 229 240 253 267 282 290 296 299 302 306 309 312 313 313 313 312 313 315 318 320 319 318 317 317 319 321 321 319 317 314 310 309
215 211 216 205 186 174 173 187 223 253 265 268 268 270 272 273 271 264 261 264 268 265 257 254 256 255 245 234 238 249 249 241 238 233 225 217 211 212 213 211 210 209 210 213 215 221 226 231 238 242 242 242 245 244 239 236 236 234 231 231 230 229 230 231 232 234 244 256 266 276 286 295 300 305 309 312 314 315 313 313 314 316 320 325 327 326 324 323 321 322 323 323 321 318 315 313 312
214 210 211 208 207 190 177 183 197 238 255 257 261 261 263 273 277 269 261 258 261 262 260 259 259 255 246 232 226 239 247 246 247 246 242 235 226 224 225 223 221 218 219 220 220 222 228 235 243 249 248 245 247 250 246 241 240 239 237 237 235 234 237 240 241 241 248 257 267 278 287 295 301 307 312 315 316 316 316 317 319 323 329 335 337 336 334 331 329 328 327 325 323 321 319 316 315
217 210 212 216 223 208 185 186 192 231 252 255 260 258 256 267 274 274 268 260 253 251 252 256 257 254 250 238 225 230 242 245 245 247 250 250 245 241 238 234 230 229 229 229 229 227 228 231 235 240 246 244 245 251 253 248 245 243 242 243 242 241 244 248 250 251 255 263 272 281 289 298 304 309 313 314 316 319 322 323 324 331 338 343 344 344 342 339 335 331 328 328 326 324 321 318 317
223 209 209 215 223 213 190 182 193 232 258 264 267 264 259 262 266 271 276 270 254 244 247 250 248 250 252 247 237 228 230 239 242 240 246 253 254 252 250 245 237 235 237 238 240 240 236 234 232 232 239 243 243 247 253 254 251 249 248 248 247 247 249 254 257 260 264 270 278 285 291 299 305 308 310 312 316 321 325 327 330 335 340 343 344 345 345 343 338 335 332 330 327 323 320 318 316
228 211 209 212 214 212 196 184 190 210 232 249 261 265 263 262 263 269 275 270 254 244 244 243 242 247 251 250 248 239 229 230 240 245 247 253 258 258 257 257 251 244 243 244 246 248 248 244 240 237 236 241 241 238 244 251 253 254 253 252 252 252 254 257 261 265 270 275 281 286 292 299 303 304 305 308 314 321 326 329 331 334 335 337 338 339 340 340 338 337 334 329 325 322 320 318 316
231 216 214 212 209 210 203 198 198 203 217 229 243 257 262 264 266 269 270 263 255 251 245 240 242 245 248 249 249 248 242 233 237 247 250 252 256 257 257 261 264 260 255 253 251 252 255 254 250 244 239 239 241 239 239 245 250 254 255 255 256 257 258 261 265 268 272 276 281 286 292 298 300 298 301 307 314 320 325 328 329 329 329 328 327 327 328 329 329 328 324 321 319 318 319 318 317
230 219 216 215 212 210 210 214 216 211 215 221 235 253 262 264 265 267 263 258 260 259 251 244 244 248 249 248 248 250 250 243 239 243 248 250 252 253 254 260 267 268 266 263 260 257 257 260 259 254 248 245 243 243 242 243 247 250 252 255 257 259 259 262 265 269 272 277 280 284 290 294 293 294 302 308 314 321 325 327 326 323 320 317 316 317 318 320 321 319 316 314 314 314 315 314 312
228 220 216 215 214 213 214 221 228 223 216 214 224 240 253 259 261 260 255 259 266 260 252 248 246 248 247 245 246 250 249 247 243 241 243 248 251 252 252 254 263 267 267 264 260 257 256 259 261 260 257 254 250 247 245 244 245 248 251 253 255 257 258 261 266 269 273 277 280 283 286 288 289 295 304 309 314 320 321 319 317 314 312 311 310 311 315 317 318 316 315 314 313 311 310 309 307
229 220 214 212 211 214 217 217 222 226 223 217 218 226 236 247 256 259 256 260 265 258 254 252 248 245 245 243 243 245 245 245 245 243 243 246 249 249 246 247 255 261 261 258 254 252 251 252 255 257 256 254 252 251 250 248 246 246 249 252 255 257 259 262 265 270 275 278 281 283 283 285 289 297 304 307 309 309 306 304 302 303 306 308 309 312 315 317 317 317 315 313 311 309 307 304 302
233 225 218 214 209 211 218 218 219 225 227 225 225 228 232 237 247 254 257 259 262 260 257 253 248 244 243 241 240 240 242 242 242 243 243 243 241 241 242 243 245 251 253 254 254 253 251 250 251 253 253 251 250 249 250 251 249 248 249 252 255 258 260 262 264 269 275 279 281 282 282 285 291 296 299 299 298 295 292 293 295 299 305 309 311 314 317 319 320 319 316 311 308 306 306 304 302
242 237 226 222 220 218 221 222 222 225 229 233 232 229 232 238 243 248 255 260 262 264 259 250 248 246 239 237 239 237 238 239 240 240 239 236 232 234 241 241 238 245 252 254 256 256 255 252 250 251 252 251 249 246 245 248 250 249 249 251 253 256 259 261 264 267 272 278 282 281 282 285 287 288 289 289 287 285 286 290 297 304 309 312 314 315 315 316 319 320 318 316 313 307 305 305 306
242 243 233 232 236 230 224 225 225 226 231 238 238 236 238 243 245 246 252 256 257 261 261 254 249 249 244 240 239 235 237 242 243 243 242 238 234 236 241 238 235 244 252 257 258 258 256 253 250 249 249 249 248 245 243 243 246 247 248 249 250 253 256 259 263 266 269 276 281 281 280 281 279 278 278 279 280 282 288 295 302 308 311 313 314 314 312 312 316 319 322 328 331 323 312 308 308
239 239 240 244 242 228 222 225 227 226 228 233 236 239 241 243 246 249 249 252 253 255 263 261 250 248 247 245 240 235 240 247 246 246 247 244 241 240 239 234 232 242 252 256 256 256 255 252 249 246 245 245 245 243 242 241 243 245 245 246 247 250 253 257 262 265 268 274 278 276 273 269 268 270 271 275 280 287 294 299 304 310 313 314 314 314 314 314 316 318 322 329 335 334 325 317 312
238 238 241 239 231 224 221 224 227 226 228 232 233 232 235 239 246 250 249 253 256 257 264 266 254 248 249 248 245 240 243 245 240 237 239 244 246 243 238 233 234 242 249 252 253 253 252 250 246 242 240 240 242 241 240 240 241 242 244 245 246 249 252 256 261 263 266 272 273 266 263 262 262 267 272 278 285 292 298 302 308 312 314 314 316 317 317 317 316 316 319 324 327 327 325 320 315
232 236 238 232 229 229 225 223 225 226 228 233 234 232 234 239 242 247 250 251 255 259 265 268 262 253 251 251 248 242 240 236 232 231 234 244 251 244 236 236 242 249 253 255 257 254 249 246 242 237 236 236 240 241 239 240 240 240 243 246 247 250 253 256 259 261 265 269 265 258 257 259 263 270 279 286 292 296 299 304 309 313 314 316 318 318 317 316 317 317 319 321 322 322 320 318 316
228 228 231 230 232 236 233 230 230 229 231 234 234 232 235 238 239 237 237 243 250 254 258 267 274 265 256 255 251 244 240 232 228 229 228 232 237 232 230 238 248 256 260 263 263 256 248 243 239 234 234 235 239 242 241 242 241 240 241 244 247 250 252 254 255 259 263 262 255 253 256 259 266 274 283 290 295 297 299 304 311 315 318 319 317 315 314 315 316 318 319 320 320 319 316 315 313
232 230 232 232 232 234 235 237 235 233 234 237 236 235 235 237 238 233 233 244 253 255 258 266 275 276 268 261 252 242 234 228 225 226 224 220 224 227 228 237 247 254 261 267 266 257 248 242 238 233 233 235 238 242 243 242 240 239 239 241 244 246 248 251 252 256 258 251 246 250 255 260 269 278 285 290 294 297 301 307 314 316 317 316 313 311 313 315 316 318 320 320 320 319 316 314 312
239 235 237 239 238 233 231 237 240 236 237 240 241 242 240 238 241 243 241 245 250 255 263 268 269 269 267 261 256 250 238 227 219 219 224 229 233 234 233 239 245 250 260 269 266 259 251 243 237 232 233 235 235 239 243 241 238 238 237 239 241 244 247 249 250 252 249 240 239 246 253 263 273 280 285 289 292 297 304 311 315 315 312 310 309 311 315 316 317 317 318 318 318 317 317 316 314